Date String (YYYY-MM-DD hh:mm:ss) UTC,Instrument flags,Ambient pressure (hPa),Sample flow (lpm),Bypass flow (lpm),Sample temperature (°C),Ambient temperature (°C),ASC tube jacket temperature (°C),LED temperature (°C),Box temperature (°C),Sample RH (%),Span deviation,Mass concentration (μg/m³),Mass concentration (μg/m³),Mass concentration (μg/m³)
DateTimeUTC,F1_M11,P_M11,Q1_M11,Q2_M11,T1_M11,T2_M11,T3_M11,T4_M11,T5_M11,U1_M11,ZSPAN_M11,X0_M11,X2_M11,X1_M11
2022-09-24 09:00:00,,0830.1,4.99,0.00,30.6,29.1,00.0,39.4,32.4,11.3,0000.0,0005.27,0002.78,0002.02
2022-09-24 09:01:00,,0830.1,4.99,0.00,30.6,29.1,00.0,39.4,32.4,11.0,0000.0,0005.62,0002.80,0002.04
2022-09-24 09:02:00,,0830.1,5.02,0.00,30.6,29.1,00.0,39.4,32.4,11.0,0000.0,0005.61,0002.78,0002.04
2022-09-24 09:03:00,,0830.1,4.99,0.00,30.6,29.1,00.0,39.4,32.4,10.9,0000.0,0005.40,0002.71,0002.05
2022-09-24 09:04:00,,0830.0,5.01,0.00,30.6,29.1,00.0,39.4,32.5,10.7,0000.0,0005.99,0002.75,0002.05
2022-09-24 09:05:00,,0830.1,5.00,0.00,30.6,29.1,00.0,39.4,32.5,10.7,0000.0,0006.78,0002.78,0002.05
2022-09-24 09:06:00,,0830.0,5.01,0.00,30.7,29.1,00.0,39.4,32.4,10.7,0000.0,0006.78,0002.77,0002.04
2022-09-24 09:07:00,,0830.0,5.00,0.00,30.6,29.1,00.0,39.4,32.4,10.9,0000.0,0006.75,0002.77,0002.03
2022-09-24 09:08:00,,0830.0,5.01,0.00,30.6,29.1,00.0,39.4,32.4,11.1,0000.0,0006.83,0002.73,0002.02
2022-09-24 09:09:00,,0829.9,4.99,0.00,30.7,29.1,00.0,39.4,32.4,10.9,0000.0,0006.65,0002.78,0002.02
2022-09-24 09:10:00,,0829.9,5.00,0.00,30.7,29.1,00.0,39.4,32.4,10.5,0000.0,0006.23,0002.76,0002.01
2022-09-24 09:11:00,,0829.9,4.99,0.00,30.7,29.1,00.0,39.4,32.4,10.7,0000.0,0006.11,0002.73,0001.98
2022-09-24 09:12:00,,0829.9,5.01,0.00,30.7,29.1,00.0,39.4,32.4,10.5,0000.0,0005.72,0002.70,0001.97
2022-09-24 09:13:00,,0829.8,4.99,0.00,30.7,29.1,00.0,39.4,32.5,10.5,0000.0,0005.69,0002.69,0001.97
2022-09-24 09:14:00,,0829.8,5.00,0.00,30.7,29.1,00.0,39.4,32.5,10.5,0000.0,0005.81,0002.74,0001.96
2022-09-24 09:15:00,,0830.0,5.00,0.00,30.7,29.1,00.0,39.4,32.4,10.5,0000.0,0006.05,0002.75,0001.95
2022-09-24 09:16:00,,0830.0,4.99,0.00,30.6,29.1,00.0,39.4,32.4,10.4,0000.0,0005.87,0002.72,0001.94
2022-09-24 09:17:00,,0830.0,5.00,0.00,30.6,29.1,00.0,39.4,32.4,10.8,0000.0,0006.09,0002.75,0001.95
2022-09-24 09:18:00,,0829.9,5.00,0.00,30.6,29.0,00.0,39.4,32.4,11.4,0000.0,0006.21,0002.70,0001.93
2022-09-24 09:19:00,,0829.9,5.01,0.00,30.6,29.0,00.0,39.4,32.4,11.5,0000.0,0005.98,0002.67,0001.92
2022-09-24 09:20:00,,0830.0,4.98,0.00,30.6,29.0,00.0,39.4,32.4,11.5,0000.0,0005.89,0002.61,0001.91
2022-09-24 09:21:00,,0829.9,5.01,0.00,30.6,28.9,00.0,39.4,32.3,11.8,0000.0,0005.85,0002.58,0001.91
2022-09-24 09:22:00,,0829.9,5.00,0.00,30.6,28.9,00.0,39.4,32.4,11.5,0000.0,0005.84,0002.54,0001.91
2022-09-24 09:23:00,,0829.9,4.99,0.00,30.6,29.0,00.0,39.4,32.4,11.5,0000.0,0006.13,0002.53,0001.90
2022-09-24 09:24:00,,0829.8,5.01,0.00,30.6,29.0,00.0,39.4,32.4,11.3,0000.0,0006.35,0002.50,0001.89
2022-09-24 09:25:00,,0829.8,5.00,0.00,30.6,29.0,00.0,39.4,32.4,10.9,0000.0,0006.10,0002.41,0001.87
2022-09-24 09:26:00,,0829.9,5.00,0.00,30.6,29.0,00.0,39.4,32.4,10.7,0000.0,0005.56,0002.34,0001.86
2022-09-24 09:27:00,,0829.8,5.01,0.00,30.6,29.0,00.0,39.4,32.4,10.5,0000.0,0005.41,0002.33,0001.86
2022-09-24 09:28:00,,0829.9,5.00,0.00,30.6,29.0,00.0,39.4,32.4,10.9,0000.0,0005.11,0002.28,0001.83
2022-09-24 09:29:00,,0829.9,5.00,0.00,30.6,29.0,00.0,39.4,32.4,11.5,0000.0,0004.82,0002.27,0001.82
2022-09-24 09:30:00,,0829.8,5.00,0.00,30.6,28.9,00.0,39.4,32.3,11.2,0000.0,0004.88,0002.32,0001.82
2022-09-24 09:31:00,,0829.8,5.01,0.00,30.6,28.9,00.0,39.4,32.3,10.8,0000.0,0005.42,0002.32,0001.81
2022-09-24 09:32:00,,0829.8,5.00,0.00,30.6,28.9,00.0,39.4,32.4,10.7,0000.0,0006.00,0002.35,0001.80
2022-09-24 09:33:00,,0829.7,4.99,0.00,30.6,28.9,00.0,39.4,32.3,10.4,0000.0,0006.03,0002.35,0001.79
2022-09-24 09:34:00,,0829.7,5.01,0.00,30.6,28.9,00.0,39.4,32.4,10.2,0000.0,0005.78,0002.34,0001.79
2022-09-24 09:35:00,,0829.7,4.99,0.00,30.6,28.9,00.0,39.4,32.4,10.1,0000.0,0005.59,0002.33,0001.79
2022-09-24 09:36:00,,0829.7,5.00,0.00,30.6,28.9,00.0,39.4,32.4,10.0,0000.0,0005.86,0002.38,0001.79
2022-09-24 09:37:00,,0829.7,5.00,0.00,30.6,28.9,00.0,39.4,32.4,10.2,0000.0,0005.90,0002.38,0001.79
2022-09-24 09:38:00,,0829.7,4.99,0.00,30.6,28.9,00.0,39.4,32.3,10.5,0000.0,0005.10,0002.33,0001.78
2022-09-24 09:39:00,,0829.7,5.01,0.00,30.6,28.9,00.0,39.4,32.3,10.4,0000.0,0005.63,0002.35,0001.79
2022-09-24 09:40:00,,0829.7,4.99,0.00,30.5,28.9,00.0,39.4,32.3,10.5,0000.0,0005.72,0002.36,0001.79
2022-09-24 09:41:00,,0829.7,5.01,0.00,30.6,28.9,00.0,39.4,32.3,10.9,0000.0,0005.62,0002.31,0001.79
2022-09-24 09:42:00,,0829.6,4.99,0.00,30.6,28.9,00.0,39.4,32.3,10.5,0000.0,0004.88,0002.28,0001.78
2022-09-24 09:43:00,,0829.7,5.00,0.00,30.5,28.9,00.0,39.4,32.3,10.6,0000.0,0004.32,0002.23,0001.78
2022-09-24 09:44:00,,0829.7,5.00,0.00,30.5,28.9,00.0,39.4,32.3,10.8,0000.0,0004.21,0002.22,0001.78
2022-09-24 09:45:00,,0829.6,5.00,0.00,30.5,28.9,00.0,39.4,32.3,10.6,0000.0,0004.08,0002.22,0001.77
2022-09-24 09:46:00,,0829.6,5.00,0.00,30.5,28.9,00.0,39.4,32.3,10.5,0000.0,0003.97,0002.23,0001.76
2022-09-24 09:47:00,,0829.6,5.00,0.00,30.5,28.9,00.0,39.4,32.3,10.5,0000.0,0004.48,0002.22,0001.76
2022-09-24 09:48:00,,0829.7,5.01,0.00,30.5,28.9,00.0,39.4,32.3,10.5,0000.0,0004.78,0002.21,0001.75
2022-09-24 09:49:00,,0829.8,4.99,0.00,30.5,28.9,00.0,39.4,32.3,10.4,0000.0,0004.95,0002.27,0001.75
2022-09-24 09:50:00,,0829.8,5.01,0.00,30.5,28.9,00.0,39.4,32.4,10.4,0000.0,0004.42,0002.27,0001.76
2022-09-24 09:51:00,,0829.8,4.99,0.00,30.5,28.9,00.0,39.4,32.3,10.3,0000.0,0004.39,0002.28,0001.76
2022-09-24 09:52:00,,0829.8,5.02,0.00,30.5,28.9,00.0,39.4,32.3,10.5,0000.0,0004.47,0002.33,0001.79
2022-09-24 09:53:00,,0829.8,4.99,0.00,30.5,28.9,00.0,39.4,32.3,10.6,0000.0,0004.61,0002.38,0001.80
2022-09-24 09:54:00,,0829.8,5.02,0.00,30.5,28.9,00.0,39.3,32.3,10.5,0000.0,0004.96,0002.42,0001.81
2022-09-24 09:55:00,,0829.8,4.99,0.00,30.5,28.9,00.0,39.4,32.3,10.8,0000.0,0005.03,0002.42,0001.80
2022-09-24 09:56:00,,0829.8,5.01,0.00,30.5,28.9,00.0,39.4,32.3,10.5,0000.0,0005.22,0002.47,0001.80
2022-09-24 09:57:00,,0829.8,4.99,0.00,30.5,28.9,00.0,39.3,32.3,10.5,0000.0,0005.52,0002.44,0001.81
2022-09-24 09:58:00,,0829.8,5.00,0.00,30.5,28.9,00.0,39.3,32.3,10.6,0000.0,0005.00,0002.44,0001.81
2022-09-24 09:59:00,,0829.8,4.99,0.00,30.5,28.9,00.0,39.3,32.3,10.8,0000.0,0004.72,0002.45,0001.82
